星链-31842 (STARLINK-31842 )

导读

STARLINK-31842是美国SpaceX公司星链(Starlink)低轨互联网卫星星座的一颗组网卫星,于2024年5月6日所属批次由猎鹰九号火箭从卡纳维拉尔角太空军基地发射升空,进入近地轨道。它属于二代星链V2.0 Mini卫星,承担为全球提供高速低延迟宽带互联网服务的任务,是星链星座规模扩展的重要组成部分,目前已入轨参与星座组网运营。

基本信息
目录编号:
59672
目录名称:
STARLINK-31842
国际标识:
2024-084U
轨道中心:
EARTH
卫星名称:
星链-31842
卫星全名:
星链-31842 (STARLINK-31842 )
卫星状态:
在轨 (已飞行773 天)
发射日期:
2024-05-06 UTC
国别 :
美国 (US)
星等 :
--
轨道信息
数据来源 国际轨道数据 AOE轨道数据
星历时间 2026-06-16T16:49:50+0800
1天前
查看轨道信息
2026-06-15T07:00:00+0800
3天前
查看轨道信息
半长轴 6861.19km 6861.214km
偏心率 0.0001356 0.0001681
轨道倾角 43.002° 43.001°
近地点辐角 274.546° 268.517°
升交点赤经 201.143° 209.107°
平近点角 85.523° 250.600°
近地点 482.122km 481.923km
远地点 483.984km 484.231km
周期 94.267分钟 94.267分钟
每日圈数 15.275787 15.275707
详细信息
固有亮度:
5
最大亮度:
1.5
卫星平台:
Starlink v2.0 mini
覆盖范围:
全球
运营商:
太空探索技术公司
运营商所在国:
美国
制造商(研发单位):
太空探索技术公司
制造商所在国:
美国
使用方式:
暂无
卫星简介
星链(Starlink)计划是由太空探索技术公司(SpaceX)提出的一个巨型低轨卫星互联网星座项目,计划在2019年至2024年间在太空搭建由约1.2万颗卫星组成的“星链”网络,其中1584颗将部署在地球上空550千米处的近地轨道,并从2020年开始工作。该卫星仍在工作。
2D轨道图
3D轨道图
轨道高度分析图
轨道倾角分析图
轨道综合分析图
查看轨道综合分析图